[[{"header":{"parameterUnit":"m.s-1","parameterCategory":1,"la1":30.2991,"la2":30.254,"lo1":-89.0895,"lo2":-89.0444,"dy":0.0017,"dx":0.0017,"nx":28,"ny":28,"refTime":"2024-03-24T09:00:00:Z","depth":0,"parameterNumber":2,"parameterNumberName":"U-component_of_WINDS"},"data":[0,0,0,0,0,0,0,0,0,0,0,0,0,0,0,0,0,0,0,0,0,0,0,0,0,0,0,0,0,0,0,0,0,0,0,0,0,0,0,0,0,0,0,0,0,0,0,0,0,0,0,0,0,0,0,0,0,0,-3.7409,-3.7411,0,-3.7607,-3.761,-3.7612,-3.7688,-3.7687,-3.7686,-3.7686,-3.7889,-3.7895,-3.7901,0,0,0,0,0,0,0,0,0,0,0,0,0,-3.7096,-3.7101,-3.7409,-3.7411,-3.7414,-3.7607,-3.761,-3.7612,-3.7688,-3.7687,-3.7686,-3.7686,-3.7887,-3.7894,-3.7901,0,0,0,0,0,0,0,0,0,0,0,0,0,-3.7256,-3.7103,-3.7408,-3.7475,-3.7483,-3.7606,-3.761,-3.7613,-3.7688,-3.7687,-3.7686,-3.7685,-3.7885,-3.7893,-3.7902,-3.7975,0,0,-3.7929,-3.7933,0,0,0,0,0,0,0,0,-3.7247,-3.7268,-3.7462,-3.747,-3.7479,-3.7622,-3.7574,-3.7734,-3.7688,-3.761,-3.7686,-3.7685,-3.7801,-3.7816,-3.7856,-3.7984,-3.7993,-3.793,-3.7936,-3.7939,-3.7942,0,0,0,0,0,0,0,-3.7236,-3.726,-3.7487,-3.7465,-3.7476,-3.7495,-3.7516,-3.7605,-3.7708,-3.7617,-3.7623,-3.7645,-3.7805,-3.7847,-3.7861,-3.7996,-3.793,-3.7938,-3.7943,-3.7947,-3.8194,-3.8195,0,0,0,0,0,0,-3.7214,-3.725,-3.7481,-3.7493,-3.7359,-3.7501,-3.7525,-3.7577,-3.7707,-3.7726,-3.7646,-3.7648,-3.7832,-3.785,-3.7868,-3.7962,-3.7939,-3.7948,-3.7953,-3.8193,-3.8195,-3.8196,0,0,0,0,0,0,-3.7207,-3.7234,-3.7473,-3.7373,-3.7405,-3.7507,-3.7565,-3.7581,-3.7623,-3.7729,-3.7748,-3.7669,-3.7832,-3.7856,-3.7948,-3.797,-3.7952,-3.796,-3.8192,-3.8193,-3.8195,-3.8149,0,0,0,0,0,0,-3.7197,-3.7231,-3.7259,-3.7373,-3.741,-3.7549,-3.7566,-3.7586,-3.7638,-3.7643,-3.7756,-3.7774,-3.7833,-3.7934,-3.7957,-3.7982,-3.7967,-3.819,-3.8192,-3.8195,-3.8149,-3.8149,-3.8149,0,0,0,0,0,-3.7186,-3.7238,-3.726,-3.7288,-3.7448,-3.755,-3.7571,-3.7638,-3.764,-3.7669,-3.7737,-3.777,-3.7964,-3.7943,-3.7969,-3.7997,-3.8189,-3.8192,-3.8194,-3.8149,-3.8149,-3.8149,0,0,0,0,0,0,-3.7124,-3.7255,-3.728,-3.7371,-3.7449,-3.7563,-3.7602,-3.7636,-3.7715,-3.7716,-3.7797,-3.7821,-3.7907,-3.7962,-3.7935,-3.8075,-3.8079,-3.8087,-3.8036,-3.8037,-3.8037,-3.8021,-3.7974,0,0,0,0,0,-3.7121,-3.7193,-3.7303,-3.7372,-3.741,-3.7499,-3.7546,-3.7591,-3.7675,-3.7708,-3.7783,-3.7863,-3.7942,-3.7993,-3.8071,-3.8158,-3.8184,-3.819,-3.819,-3.819,-3.8196,-3.8246,-3.825,-3.8205,-3.8205,-3.8205,0,0,-3.7115,-3.7195,-3.7236,-3.7362,-3.7428,-3.75,-3.7526,-3.7602,-3.7657,-3.772,-3.7811,-3.7869,-3.7964,-3.8053,-3.8096,-3.8101,-3.8214,-3.8193,-3.8192,-3.8199,-3.8249,-3.8253,-3.8257,-3.8207,-3.8206,-3.8206,0,0,-3.7142,-3.721,-3.7275,-3.734,-3.7439,-3.7498,-3.7514,-3.7623,-3.7663,-3.7756,-3.7805,-3.7872,-3.8006,-3.8072,-3.8122,-3.8174,-3.8207,-3.8198,-3.8198,-3.8245,-3.8249,-3.8253,-3.8271,-3.8276,-3.8203,-3.8203,-3.8203,0,-3.7122,-3.7234,-3.7304,-3.7378,-3.7432,-3.7492,-3.7559,-3.7619,-3.7739,-3.7775,-3.7779,-3.7949,-3.8017,-3.8122,-3.8135,-3.8174,-3.8195,-3.8185,-3.8243,-3.8247,-3.8251,-3.827,-3.8276,-3.8201,-3.8201,-3.8202,-3.8202,0,-3.7205,-3.7281,-3.7322,-3.7436,-3.7495,-3.7564,-3.7646,-3.7697,-3.7737,-3.7795,-3.7889,-3.7973,-3.807,-3.8098,-3.8138,-3.821,-3.821,-3.8227,-3.8233,-3.8253,-3.8271,-3.8279,-3.8199,-3.8199,-3.82,-3.82,0,0,-3.7198,-3.735,-3.7364,-3.7416,-3.753,-3.759,-3.7663,-3.7757,-3.7799,-3.788,-3.7943,-3.8055,-3.8072,-3.813,-3.8178,-3.8219,-3.8255,-3.8232,-3.8236,-3.8233,-3.8339,-3.8325,-3.8332,-3.8278,-3.8279,-3.8281,-3.8331,0,-3.7239,-3.7371,-3.7437,-3.7541,-3.7612,-3.7671,-3.7734,-3.7811,-3.7867,-3.7936,-3.7999,-3.8077,-3.8094,-3.8129,-3.8173,-3.8241,-3.8277,-3.8238,-3.8337,-3.8339,-3.8311,-3.8342,-3.8327,-3.837,-3.8339,-3.834,-3.8341,0,-3.7306,-3.7385,-3.7496,-3.7601,-3.7634,-3.7689,-3.7781,-3.7846,-3.7934,-3.7973,-3.8037,-3.8084,-3.8162,-3.8163,-3.8272,-3.8244,-3.8288,-3.8328,-3.8331,-3.8343,-3.8341,-3.8353,-3.8386,-3.8392,-3.8353,-3.8352,-3.8351,0,-3.7289,-3.7424,-3.7508,-3.7551,-3.7676,-3.7713,-3.7767,-3.7855,-3.7907,-3.7988,-3.8023,-3.8111,-3.8159,-3.8227,-3.8296,-3.829,-3.8399,-3.8405,-3.8433,-3.8431,-3.8453,-3.845,-3.8492,-3.8482,-3.8481,-3.8481,-3.8481,0,-3.7329,-3.7394,-3.7502,-3.7553,-3.7628,-3.7703,-3.7775,-3.7834,-3.7911,-3.7975,-3.8031,-3.809,-3.8178,-3.8248,-3.8303,-3.8385,-3.8406,-3.844,-3.8453,-3.8435,-3.843,-3.8464,-3.8463,-3.8483,-3.8483,-3.8482,-3.8482,0,-3.7323,-3.7398,-3.7493,-3.7603,-3.7633,-3.7683,-3.7778,-3.783,-3.7889,-3.7969,-3.7992,-3.8086,-3.8171,-3.8247,-3.836,-3.8397,-3.848,-3.8498,-3.845,-3.8458,-3.8481,-3.8478,-3.8546,-3.8559,-3.8539,-3.8539,-3.8539,0,-3.7343,-3.7395,-3.7511,-3.7557,-3.761,-3.7685,-3.7738,-3.7815,-3.7868,-3.7973,-3.8012,-3.8101,-3.8177,-3.831,-3.8388,-3.8474,-3.8494,-3.8512,-3.8507,-3.8487,-3.8494,-3.849,-3.8496,-3.8511,-3.8511,-3.8511,-3.8511,0,-3.7371,-3.7406,-3.7481,-3.757,-3.7632,-3.7706,-3.7781,-3.7816,-3.7906,-3.7964,-3.8051,-3.811,-3.8225,-3.8312,-3.8408,-3.8464,-3.8502,-3.8512,-3.8523,-3.8504,-3.8474,-3.849,-3.8449,-3.851,-3.851,-3.851,-3.851,-3.851,-3.7379,-3.7428,-3.7517,-3.7599,-3.7663,-3.7732,-3.7786,-3.7853,-3.7927,-3.8026,-3.8067,-3.8156,-3.8243,-3.8375,-3.843,-3.8501,-3.8508,-3.8524,-3.8528,-3.8531,-3.8527,-3.8463,-3.8519,-3.8519,-3.8519,-3.8519,-3.8519,0,-3.741,-3.747,-3.7545,-3.7648,-3.7713,-3.7743,-3.7828,-3.788,-3.7957,-3.8035,-3.8108,-3.8209,-3.8294,-3.8378,-3.8468,-3.8509,-3.8529,-3.853,-3.8527,-3.854,-3.8516,-3.8497,-3.8512,-3.8512,-3.8512,-3.8512,-3.8512,-3.8512,-3.7434,-3.7517,-3.7562,-3.7678,-3.7738,-3.7826,-3.7871,-3.7935,-3.7998,-3.8107,-3.8178,-3.8233,-3.8313,-3.8409,-3.8489,-3.8512,-3.8542,-3.8538,-3.8566,-3.8542,-3.8541,-3.8541,-3.8524,-3.8544,-3.8544,-3.8584,-3.8584,-3.8584]},{"header":{"parameterUnit":"m.s-1","parameterCategory":1,"la1":30.2991,"la2":30.254,"lo1":-89.0895,"lo2":-89.0444,"dy":0.0017,"dx":0.0017,"nx":28,"ny":28,"refTime":"2024-03-24T09:00:00:Z","depth":0,"parameterNumber":3,"parameterNumberName":"V-component_of_WINDS"},"data":[0,0,0,0,0,0,0,0,0,0,0,0,0,0,0,0,0,0,0,0,0,0,0,0,0,0,0,0,0,0,0,0,0,0,0,0,0,0,0,0,0,0,0,0,0,0,0,0,0,0,0,0,0,0,0,0,0,0,8.418,8.4181,0,8.4204,8.4204,8.4205,8.4157,8.4156,8.4154,8.4153,8.4173,8.4175,8.4177,0,0,0,0,0,0,0,0,0,0,0,0,0,8.4091,8.4093,8.418,8.4181,8.4181,8.4204,8.4205,8.4205,8.4157,8.4155,8.4154,8.4152,8.4173,8.4175,8.4177,0,0,0,0,0,0,0,0,0,0,0,0,0,8.4124,8.4093,8.418,8.416,8.4159,8.4204,8.4205,8.4205,8.4158,8.4155,8.4153,8.4151,8.4172,8.4175,8.4178,8.4243,0,0,8.4187,8.4188,0,0,0,0,0,0,0,0,8.4122,8.4127,8.4163,8.4162,8.416,8.4175,8.418,8.4217,8.4158,8.4158,8.4152,8.415,8.4176,8.4178,8.4187,8.4244,8.4244,8.4187,8.4189,8.419,8.4191,0,0,0,0,0,0,0,8.412,8.4126,8.419,8.4163,8.4162,8.4149,8.4151,8.4187,8.4179,8.4158,8.4154,8.4158,8.4174,8.4185,8.4188,8.4245,8.4187,8.419,8.4191,8.4193,8.4356,8.4359,0,0,0,0,0,0,8.412,8.4124,8.4189,8.419,8.4135,8.4153,8.4155,8.4173,8.4179,8.4178,8.416,8.4156,8.4181,8.4184,8.4188,8.4266,8.419,8.4193,8.4195,8.4354,8.4357,8.436,0,0,0,0,0,0,8.4119,8.4127,8.4188,8.4156,8.4163,8.4157,8.4177,8.4174,8.4185,8.4181,8.4179,8.4172,8.4179,8.4184,8.423,8.4266,8.4194,8.4197,8.4351,8.4355,8.4358,8.4421,0,0,0,0,0,0,8.4116,8.4126,8.4152,8.4157,8.4165,8.423,8.4179,8.4177,8.4191,8.4185,8.4192,8.419,8.4178,8.4226,8.4233,8.4268,8.4199,8.4348,8.4353,8.4357,8.4415,8.4426,8.4435,0,0,0,0,0,8.4113,8.4167,8.4153,8.4161,8.4197,8.4233,8.4237,8.4222,8.4194,8.4219,8.4216,8.419,8.4261,8.4231,8.4238,8.4275,8.4345,8.4351,8.4357,8.4411,8.4424,8.4435,0,0,0,0,0,0,8.4163,8.4167,8.4152,8.4209,8.4221,8.4224,8.4255,8.4236,8.4255,8.4249,8.4229,8.4231,8.4281,8.4282,8.4249,8.4339,8.4298,8.4306,8.4336,8.4349,8.4359,8.4357,8.4202,0,0,0,0,0,8.4182,8.4212,8.4213,8.4263,8.427,8.4262,8.4277,8.4265,8.4276,8.428,8.4281,8.4291,8.4316,8.4332,8.4354,8.4415,8.4416,8.4444,8.4454,8.4463,8.4469,8.4503,8.4515,8.4379,8.4379,8.4378,0,0,8.4219,8.4224,8.4244,8.4273,8.4281,8.4312,8.4266,8.43,8.4323,8.4285,8.4329,8.433,8.434,8.4394,8.4418,8.4397,8.4508,8.447,8.4477,8.4479,8.451,8.4523,8.4534,8.4383,8.4382,8.4381,0,0,8.4302,8.4309,8.4353,8.4362,8.4375,8.437,8.4381,8.4387,8.4387,8.4431,8.4404,8.4429,8.4472,8.4481,8.4491,8.458,8.4557,8.4588,8.464,8.4672,8.4683,8.4693,8.4725,8.4737,8.4594,8.4594,8.4595,0,8.4346,8.4393,8.4377,8.4414,8.4428,8.4397,8.4441,8.445,8.4469,8.4479,8.4455,8.4509,8.4514,8.457,8.4592,8.4601,8.4612,8.4587,8.4683,8.4692,8.4701,8.4732,8.4744,8.4598,8.4598,8.4597,8.4597,0,8.4446,8.4479,8.4512,8.4534,8.4552,8.4592,8.4582,8.4601,8.4588,8.4585,8.463,8.4635,8.4659,8.4671,8.4657,8.4726,8.4713,8.4687,8.4645,8.4718,8.4746,8.4758,8.4603,8.4602,8.4601,8.46,0,0,8.4561,8.4576,8.4588,8.4598,8.4611,8.4635,8.4674,8.4698,8.4716,8.473,8.4762,8.48,8.4776,8.4788,8.4775,8.4804,8.4875,8.4774,8.4774,8.4793,8.4951,8.4971,8.4985,8.486,8.4862,8.4863,8.495,0,8.4645,8.4713,8.4702,8.4768,8.4798,8.4769,8.4803,8.4814,8.4812,8.4837,8.4834,8.4862,8.4828,8.4835,8.4862,8.486,8.4906,8.4854,8.4889,8.489,8.4888,8.5,8.5021,8.5103,8.4961,8.4963,8.4965,0,8.4751,8.4772,8.4842,8.4852,8.4864,8.4895,8.4917,8.4941,8.4953,8.495,8.4964,8.4946,8.4984,8.4942,8.4994,8.4958,8.4972,8.4973,8.4976,8.4979,8.4932,8.5006,8.5128,8.5141,8.4982,8.498,8.4979,0,8.483,8.4875,8.4923,8.4932,8.4944,8.4967,8.4972,8.4982,8.4998,8.5017,8.5027,8.5049,8.5062,8.5079,8.5068,8.5038,8.5122,8.5079,8.512,8.5121,8.5139,8.5138,8.5266,8.5147,8.5147,8.5147,8.5147,0,8.4925,8.4969,8.4958,8.4988,8.5037,8.5022,8.507,8.5072,8.5082,8.511,8.5086,8.5113,8.5097,8.5122,8.5113,8.5158,8.5164,8.5162,8.5159,8.5165,8.5165,8.5173,8.5168,8.515,8.515,8.5149,8.5148,0,8.502,8.5015,8.5066,8.5074,8.5077,8.5112,8.5119,8.5146,8.5143,8.518,8.5188,8.5182,8.5212,8.5202,8.5233,8.5227,8.5285,8.5274,8.5281,8.5279,8.5321,8.5318,8.5459,8.5477,8.5346,8.5348,8.5349,0,8.5081,8.5115,8.5128,8.5146,8.5155,8.5184,8.5201,8.5188,8.5206,8.5224,8.5249,8.5276,8.5298,8.5346,8.5344,8.5368,8.5358,8.5406,8.5361,8.5366,8.536,8.5358,8.5362,8.5415,8.5416,8.5418,8.5419,0,8.5191,8.5188,8.5214,8.5239,8.5261,8.528,8.5296,8.5312,8.53,8.5322,8.5353,8.537,8.5402,8.543,8.5452,8.5456,8.5436,8.5433,8.5444,8.545,8.5453,8.5453,8.5306,8.543,8.5429,8.5428,8.5427,8.5427,8.5272,8.5301,8.5315,8.5345,8.5357,8.5373,8.54,8.5401,8.5427,8.5454,8.5444,8.548,8.5491,8.5519,8.5526,8.5553,8.5535,8.555,8.5555,8.5559,8.5565,8.5449,8.5557,8.5557,8.5556,8.5556,8.5556,0,8.5381,8.539,8.5417,8.5443,8.5466,8.5447,8.5464,8.5485,8.5517,8.553,8.5553,8.5588,8.5615,8.5616,8.5641,8.5663,8.5654,8.567,8.5668,8.567,8.5579,8.5568,8.5677,8.5677,8.5677,8.5677,8.5677,8.5677,8.5441,8.549,8.5488,8.5542,8.5549,8.5586,8.5598,8.5612,8.5623,8.5665,8.5688,8.5689,8.5697,8.5723,8.5747,8.5746,8.5757,8.5777,8.5773,8.5688,8.5676,8.5665,8.5654,8.5779,8.5779,8.5861,8.5862,8.5862]}]]